WZZ2358 LIMC-LHBP

Flight info

Callsign WZZ2358
Flight time 1h 13m
Altitude 38000
Route OSKOR DCT NEVNI DCT NOBMI DCT KUBUD DCT PODET DCT KOPRY DCT ULZAK
Aircraft A320/M-SDE3FGHIRWY/LB1

Departure

Time 2026-05-04 12:38
Airport Milan Malpensa International Airport (LIMC)

Arrival

Time 2026-05-04 13:51
Airport Budapest Liszt Ferenc International Airport (LHBP)
Time Latitude Longitude Altitude Speed Heading
2026-05-04 12:28 45.64509 8.72221 759 ft 0 kts 34°
2026-05-04 12:33 45.64502 8.72214 756 ft 4 kts 33°
2026-05-04 12:33 45.64479 8.72194 756 ft 4 kts 26°
2026-05-04 12:33 45.64454 8.72181 755 ft 4 kts
2026-05-04 12:33 45.64432 8.72183 755 ft 3 kts 316°
2026-05-04 12:34 45.64427 8.72192 754 ft 0 kts 308°
2026-05-04 12:36 45.64436 8.72175 756 ft 8 kts 308°
2026-05-04 12:36 45.64487 8.72082 757 ft 14 kts 308°
2026-05-04 12:36 45.64500 8.71933 759 ft 16 kts 234°
2026-05-04 12:37 45.64459 8.71908 756 ft 0 kts 166°
2026-05-04 12:37 45.64458 8.71908 756 ft 1 kts 166°
2026-05-04 12:37 45.64259 8.71976 757 ft 69 kts 168°
2026-05-04 12:37 45.63598 8.72136 758 ft 125 kts 168°
2026-05-04 12:38 45.62593 8.72388 760 ft 167 kts 172°
2026-05-04 12:38 45.61487 8.72651 1583 ft 151 kts 172°
2026-05-04 12:38 45.60464 8.72966 2425 ft 143 kts 170°
2026-05-04 12:38 45.59489 8.73077 2873 ft 152 kts 188°
2026-05-04 12:39 45.58382 8.72818 3124 ft 174 kts 192°
2026-05-04 12:39 45.57049 8.72467 3454 ft 198 kts 191°
2026-05-04 12:39 45.55645 8.72137 3754 ft 223 kts 189°
2026-05-04 12:39 45.54239 8.71852 4321 ft 235 kts 188°
2026-05-04 12:40 45.52615 8.71710 5209 ft 239 kts 171°
2026-05-04 12:40 45.51130 8.72801 6080 ft 245 kts 133°
2026-05-04 12:40 45.50421 8.74972 6953 ft 252 kts 97°
2026-05-04 12:40 45.50741 8.77424 7801 ft 260 kts 68°
2026-05-04 12:41 45.51572 8.79753 8687 ft 265 kts 63°
2026-05-04 12:41 45.52493 8.82046 9529 ft 270 kts 63°
2026-05-04 12:41 45.53441 8.84389 10330 ft 274 kts 63°
2026-05-04 12:41 45.54384 8.86775 11062 ft 279 kts 64°
2026-05-04 12:42 45.55326 8.89231 11801 ft 284 kts 64°
2026-05-04 12:42 45.56273 8.91722 12549 ft 289 kts 60°
2026-05-04 12:42 45.57516 8.93981 13178 ft 300 kts 45°
2026-05-04 12:42 45.59177 8.95962 13419 ft 324 kts 38°
2026-05-04 12:43 45.61001 8.98037 13591 ft 347 kts 39°
2026-05-04 12:43 45.62748 9.00549 13751 ft 369 kts 54°
2026-05-04 12:43 45.64005 9.03818 14084 ft 380 kts 71°
2026-05-04 12:43 45.64589 9.07501 14609 ft 383 kts 87°
2026-05-04 12:44 45.64651 9.11324 15218 ft 385 kts 91°
2026-05-04 12:44 45.64674 9.15160 15834 ft 388 kts 92°
2026-05-04 12:44 45.64695 9.19041 16446 ft 391 kts 92°
2026-05-04 12:44 45.64714 9.22934 17046 ft 394 kts 92°
2026-05-04 12:45 45.64731 9.26820 17686 ft 397 kts 92°
2026-05-04 12:45 45.64749 9.30774 18376 ft 400 kts 92°
2026-05-04 12:45 45.64767 9.34775 18938 ft 404 kts 92°
2026-05-04 12:45 45.64782 9.38796 19490 ft 407 kts 92°
2026-05-04 12:46 45.64794 9.42870 20042 ft 411 kts 92°
2026-05-04 12:46 45.64802 9.46963 20579 ft 414 kts 92°
2026-05-04 12:46 45.64810 9.51109 21099 ft 418 kts 92°
2026-05-04 12:46 45.64818 9.55273 21593 ft 422 kts 92°
2026-05-04 12:47 45.64825 9.59472 21968 ft 425 kts 92°
2026-05-04 12:47 45.64833 9.63667 22428 ft 429 kts 91°
2026-05-04 12:47 45.64846 9.67993 22911 ft 432 kts 91°
2026-05-04 12:47 45.64861 9.72255 23378 ft 435 kts 91°
2026-05-04 12:48 45.64877 9.76647 23820 ft 439 kts 91°
2026-05-04 12:48 45.64890 9.80972 24227 ft 441 kts 91°
2026-05-04 12:48 45.64900 9.85357 24636 ft 443 kts 91°
2026-05-04 12:48 45.64905 9.89784 25040 ft 445 kts 92°
2026-05-04 12:49 45.64912 9.94211 25439 ft 448 kts 92°
2026-05-04 12:49 45.64917 9.98679 25838 ft 450 kts 92°
2026-05-04 12:49 45.64918 10.03176 26209 ft 452 kts 92°
2026-05-04 12:49 45.64917 10.07687 26607 ft 454 kts 92°
2026-05-04 12:50 45.64915 10.12178 26995 ft 456 kts 92°
2026-05-04 12:50 45.64913 10.16752 27408 ft 458 kts 92°
2026-05-04 12:50 45.64907 10.21267 27797 ft 461 kts 92°
2026-05-04 12:50 45.64894 10.25951 28174 ft 463 kts 92°
2026-05-04 12:51 45.64878 10.30514 28568 ft 466 kts 92°
2026-05-04 12:51 45.64859 10.35205 28967 ft 468 kts 92°
2026-05-04 12:51 45.64842 10.39869 29453 ft 468 kts 92°
2026-05-04 12:51 45.64826 10.44513 30027 ft 466 kts 93°
2026-05-04 12:52 45.64853 10.48974 30493 ft 466 kts 89°
2026-05-04 12:52 45.65258 10.53589 30947 ft 468 kts 81°
2026-05-04 12:52 45.65921 10.58139 31410 ft 467 kts 80°
2026-05-04 12:52 45.66585 10.62677 31913 ft 466 kts 80°
2026-05-04 12:53 45.67243 10.67190 32422 ft 464 kts 80°
2026-05-04 12:53 45.67899 10.71709 32920 ft 462 kts 80°
2026-05-04 12:53 45.68549 10.76193 33407 ft 461 kts 80°
2026-05-04 12:53 45.69197 10.80681 33930 ft 459 kts 80°
2026-05-04 12:54 45.69840 10.85131 34408 ft 457 kts 79°
2026-05-04 12:54 45.70483 10.89588 34809 ft 456 kts 79°
2026-05-04 12:54 45.71120 10.94025 35145 ft 456 kts 79°
2026-05-04 12:54 45.71755 10.98487 35487 ft 457 kts 79°
2026-05-04 12:55 45.72387 11.02935 35810 ft 457 kts 79°
2026-05-04 12:55 45.73017 11.07386 36134 ft 457 kts 79°
2026-05-04 12:55 45.73641 11.11803 36447 ft 458 kts 79°
2026-05-04 12:55 45.74280 11.16322 36732 ft 458 kts 79°
2026-05-04 12:56 45.74905 11.20747 37021 ft 459 kts 79°
2026-05-04 12:56 45.75538 11.25213 37302 ft 459 kts 79°
2026-05-04 12:56 45.76173 11.29704 37605 ft 459 kts 79°
2026-05-04 12:56 45.76800 11.34180 37894 ft 460 kts 79°
2026-05-04 12:57 45.77424 11.38686 38082 ft 461 kts 79°
2026-05-04 12:57 45.78672 11.47763 38117 ft 466 kts 79°
2026-05-04 12:58 45.79924 11.56887 38119 ft 467 kts 79°
2026-05-04 12:58 45.81175 11.66013 38117 ft 466 kts 79°
2026-05-04 12:59 45.82420 11.75108 38112 ft 466 kts 79°
2026-05-04 12:59 45.83657 11.84228 38112 ft 466 kts 79°
2026-05-04 13:00 45.84887 11.93419 38116 ft 466 kts 79°
2026-05-04 13:00 45.86102 12.02558 38119 ft 466 kts 79°
2026-05-04 13:01 45.87323 12.11759 38120 ft 466 kts 79°
2026-05-04 13:01 45.88525 12.20898 38116 ft 466 kts 79°
2026-05-04 13:02 45.89716 12.30036 38107 ft 466 kts 79°
2026-05-04 13:02 45.90907 12.39168 38116 ft 465 kts 79°
2026-05-04 13:03 45.92078 12.48242 38131 ft 465 kts 80°
2026-05-04 13:03 45.93256 12.57426 38130 ft 464 kts 80°
2026-05-04 13:04 45.94423 12.66547 38131 ft 464 kts 80°
2026-05-04 13:04 45.95572 12.75605 38124 ft 464 kts 80°
2026-05-04 13:05 45.96532 12.83246 38121 ft 463 kts 80°
2026-05-04 13:05 45.97856 12.93835 38131 ft 463 kts 80°
2026-05-04 13:06 45.98988 13.02946 38133 ft 463 kts 80°
2026-05-04 13:06 45.99928 13.10561 38133 ft 462 kts 80°
2026-05-04 13:07 46.01046 13.19688 38127 ft 462 kts 80°
2026-05-04 13:07 46.02145 13.28784 38127 ft 462 kts 80°
2026-05-04 13:08 46.03247 13.37931 38121 ft 461 kts 80°
2026-05-04 13:08 46.04345 13.47032 38125 ft 461 kts 80°
2026-05-04 13:09 46.05424 13.56122 38124 ft 461 kts 80°
2026-05-04 13:09 46.06381 13.65298 38129 ft 460 kts 84°
2026-05-04 13:10 46.06951 13.74473 38115 ft 460 kts 86°
2026-05-04 13:10 46.07407 13.83663 38110 ft 460 kts 86°
2026-05-04 13:11 46.07930 13.92839 38104 ft 460 kts 85°
2026-05-04 13:11 46.08525 14.02206 38099 ft 461 kts 85°
2026-05-04 13:12 46.09101 14.11398 38091 ft 461 kts 85°
2026-05-04 13:12 46.09650 14.20601 38090 ft 461 kts 85°
2026-05-04 13:13 46.10182 14.29811 38094 ft 461 kts 85°
2026-05-04 13:13 46.10710 14.39029 38093 ft 462 kts 85°
2026-05-04 13:14 46.11238 14.48251 38100 ft 462 kts 85°
2026-05-04 13:14 46.11752 14.57480 38101 ft 462 kts 85°
2026-05-04 13:15 46.12264 14.66711 38096 ft 462 kts 85°
2026-05-04 13:15 46.12774 14.75938 38085 ft 462 kts 85°
2026-05-04 13:16 46.13268 14.85170 38077 ft 462 kts 85°
2026-05-04 13:16 46.13758 14.94462 38069 ft 462 kts 85°
2026-05-04 13:17 46.14244 15.03670 38067 ft 462 kts 85°
2026-05-04 13:17 46.14721 15.12909 38060 ft 461 kts 85°
2026-05-04 13:18 46.15179 15.22071 38065 ft 461 kts 85°
2026-05-04 13:18 46.15639 15.31295 38067 ft 461 kts 85°
2026-05-04 13:19 46.16093 15.40512 38068 ft 460 kts 85°
2026-05-04 13:19 46.16532 15.49723 38071 ft 460 kts 85°
2026-05-04 13:20 46.16960 15.58929 38070 ft 460 kts 85°
2026-05-04 13:20 46.17408 15.68124 38067 ft 459 kts 84°
2026-05-04 13:21 46.17937 15.77279 38065 ft 459 kts 84°
2026-05-04 13:21 46.18478 15.86447 38064 ft 458 kts 84°
2026-05-04 13:22 46.18992 15.95610 38061 ft 458 kts 84°
2026-05-04 13:22 46.19486 16.04772 38060 ft 458 kts 84°
2026-05-04 13:23 46.19976 16.13930 38065 ft 457 kts 84°
2026-05-04 13:23 46.20452 16.23025 38063 ft 457 kts 84°
2026-05-04 13:24 46.20917 16.32175 38066 ft 457 kts 84°
2026-05-04 13:24 46.21382 16.41315 38065 ft 456 kts 84°
2026-05-04 13:25 46.22068 16.54998 38069 ft 455 kts 84°
2026-05-04 13:25 46.22519 16.64112 38069 ft 455 kts 84°
2026-05-04 13:26 46.22958 16.73221 38073 ft 454 kts 84°
2026-05-04 13:26 46.23389 16.82325 38075 ft 454 kts 84°
2026-05-04 13:27 46.23922 16.91398 38079 ft 452 kts 77°
2026-05-04 13:27 46.25948 16.99888 38082 ft 446 kts 59°
2026-05-04 13:28 46.29362 17.07313 38077 ft 443 kts 52°
2026-05-04 13:28 46.32887 17.14628 38077 ft 443 kts 53°
2026-05-04 13:29 46.36373 17.21919 38084 ft 443 kts 53°
2026-05-04 13:29 46.39908 17.29312 38081 ft 443 kts 53°
2026-05-04 13:30 46.43399 17.36607 38080 ft 443 kts 53°
2026-05-04 13:30 46.46926 17.44015 38083 ft 443 kts 53°
2026-05-04 13:31 46.50422 17.51392 38081 ft 444 kts 53°
2026-05-04 13:31 46.53920 17.58776 37944 ft 444 kts 53°
2026-05-04 13:32 46.55663 17.62458 37671 ft 443 kts 53°
2026-05-04 13:32 46.57410 17.66156 37397 ft 443 kts 53°
2026-05-04 13:32 46.59147 17.69839 37124 ft 443 kts 53°
2026-05-04 13:32 46.60890 17.73544 36861 ft 443 kts 53°
2026-05-04 13:33 46.62625 17.77239 36502 ft 444 kts 53°
2026-05-04 13:33 46.64368 17.80952 35778 ft 447 kts 53°
2026-05-04 13:33 46.66132 17.84710 35015 ft 450 kts 53°
2026-05-04 13:33 46.67902 17.88483 34232 ft 454 kts 53°
2026-05-04 13:34 46.69693 17.92316 33248 ft 460 kts 53°
2026-05-04 13:34 46.71493 17.96173 32353 ft 463 kts 53°
2026-05-04 13:34 46.73313 18.00079 31396 ft 467 kts 53°
2026-05-04 13:34 46.75139 18.04005 30379 ft 471 kts 54°
2026-05-04 13:35 46.76995 18.07997 29200 ft 477 kts 54°
2026-05-04 13:35 46.80684 18.15972 27665 ft 468 kts 54°
2026-05-04 13:35 46.82492 18.19879 26927 ft 463 kts 54°
2026-05-04 13:36 46.84289 18.23764 26217 ft 458 kts 54°
2026-05-04 13:36 46.86059 18.27592 25517 ft 453 kts 54°
2026-05-04 13:36 46.87818 18.31399 24825 ft 449 kts 55°
2026-05-04 13:36 46.89552 18.35160 24152 ft 445 kts 55°
2026-05-04 13:37 46.91272 18.38895 23424 ft 442 kts 55°
2026-05-04 13:37 46.92984 18.42617 22714 ft 437 kts 56°
2026-05-04 13:37 46.94660 18.46273 22056 ft 430 kts 56°
2026-05-04 13:37 46.95784 18.48730 21627 ft 426 kts 56°
2026-05-04 13:38 46.97977 18.53417 20817 ft 418 kts 51°
2026-05-04 13:38 46.99930 18.56535 20258 ft 412 kts 42°
2026-05-04 13:38 47.02164 18.59100 19692 ft 407 kts 33°
2026-05-04 13:38 47.04569 18.61254 19169 ft 402 kts 31°
2026-05-04 13:39 47.06180 18.62681 18815 ft 400 kts 31°
2026-05-04 13:39 47.08547 18.64782 18255 ft 397 kts 31°
2026-05-04 13:39 47.10900 18.66877 17687 ft 392 kts 31°
2026-05-04 13:39 47.13212 18.68940 17148 ft 387 kts 31°
2026-05-04 13:40 47.15508 18.70989 16597 ft 383 kts 31°
2026-05-04 13:40 47.17690 18.73180 16045 ft 379 kts 40°
2026-05-04 13:40 47.19558 18.75891 15462 ft 375 kts 51°
2026-05-04 13:40 47.21050 18.79007 14914 ft 372 kts 59°
2026-05-04 13:41 47.22422 18.82241 14336 ft 371 kts 59°
2026-05-04 13:41 47.23780 18.85432 13959 ft 364 kts 59°
2026-05-04 13:41 47.25099 18.88520 13840 ft 349 kts 59°
2026-05-04 13:42 47.27593 18.94368 13574 ft 326 kts 59°
2026-05-04 13:42 47.28782 18.97165 13434 ft 317 kts 59°
2026-05-04 13:42 47.29939 18.99890 13230 ft 311 kts 58°
2026-05-04 13:42 47.31303 19.02403 13076 ft 312 kts 46°
2026-05-04 13:43 47.32909 19.04620 12504 ft 319 kts 43°
2026-05-04 13:43 47.34545 19.06806 12241 ft 314 kts 43°
2026-05-04 13:43 47.36168 19.08913 12049 ft 308 kts 38°
2026-05-04 13:43 47.38064 19.10209 11917 ft 300 kts 10°
2026-05-04 13:44 47.40102 19.10100 11780 ft 291 kts 342°
2026-05-04 13:44 47.41848 19.08687 11539 ft 285 kts 315°
2026-05-04 13:44 47.43203 19.06568 11243 ft 284 kts 310°
2026-05-04 13:44 47.44526 19.04408 10955 ft 284 kts 310°
2026-05-04 13:45 47.45849 19.02238 10685 ft 283 kts 310°
2026-05-04 13:45 47.47164 19.00088 10417 ft 282 kts 310°
2026-05-04 13:45 47.48481 18.97938 10161 ft 281 kts 310°
2026-05-04 13:45 47.49788 18.95808 9867 ft 280 kts 310°
2026-05-04 13:46 47.51098 18.93678 9579 ft 278 kts 310°
2026-05-04 13:46 47.52390 18.91982 9372 ft 279 kts 328°
2026-05-04 13:46 47.54222 18.91117 9111 ft 280 kts 355°
2026-05-04 13:46 47.56180 18.91591 8375 ft 296 kts 25°
2026-05-04 13:47 47.57864 18.93446 7577 ft 309 kts 45°
2026-05-04 13:47 47.58995 18.96090 6767 ft 303 kts 76°
2026-05-04 13:47 47.59041 18.99118 5987 ft 294 kts 108°
2026-05-04 13:47 47.58022 19.01634 5215 ft 282 kts 141°
2026-05-04 13:48 47.56457 19.03295 4480 ft 275 kts 145°
2026-05-04 13:48 47.55096 19.05287 3733 ft 274 kts 133°
2026-05-04 13:48 47.53898 19.07375 3135 ft 264 kts 134°
2026-05-04 13:48 47.52706 19.09363 2758 ft 248 kts 135°
2026-05-04 13:49 47.51592 19.11172 2439 ft 234 kts 136°
2026-05-04 13:49 47.50534 19.12888 2137 ft 216 kts 136°
2026-05-04 13:49 47.49575 19.14448 1882 ft 192 kts 136°
2026-05-04 13:49 47.48729 19.15824 1654 ft 170 kts 137°
2026-05-04 13:50 47.47982 19.17037 1438 ft 149 kts 136°
2026-05-04 13:50 47.47306 19.18131 1214 ft 139 kts 137°
2026-05-04 13:50 47.46661 19.19174 1018 ft 137 kts 136°
2026-05-04 13:50 47.46033 19.20191 833 ft 134 kts 137°
2026-05-04 13:51 47.45399 19.21217 657 ft 133 kts 137°
2026-05-04 13:51 47.44768 19.22239 478 ft 133 kts 137°
2026-05-04 13:51 47.44196 19.23087 453 ft 69 kts 136°
2026-05-04 13:51 47.44032 19.23424 455 ft 17 kts 131°
2026-05-04 13:52 47.43941 19.23576 455 ft 11 kts 132°
2026-05-04 13:52 47.43873 19.23685 456 ft 18 kts 133°
2026-05-04 13:52 47.43769 19.23849 455 ft 25 kts 131°
2026-05-04 13:53 47.43637 19.24060 453 ft 31 kts 133°
2026-05-04 13:53 47.43481 19.24314 451 ft 36 kts 131°
2026-05-04 13:53 47.43308 19.24589 452 ft 36 kts 131°
2026-05-04 13:54 47.43107 19.25019 458 ft 23 kts 86°
2026-05-04 13:54 47.43212 19.25198 457 ft 24 kts 46°
2026-05-04 13:54 47.43328 19.25469 455 ft 0 kts 118°
2026-05-04 13:55 47.43321 19.25483 456 ft 3 kts 129°
2026-05-04 13:55 47.43247 19.25585 457 ft 11 kts 133°
2026-05-04 13:55 47.43257 19.25651 457 ft 6 kts 41°
2026-05-04 13:56 47.43283 19.25685 457 ft 2 kts 41°
2026-05-04 13:56 47.43300 19.25708 457 ft 0 kts 43°